Hourly Data Report for December 14, 2004

SHERBROOKE A
QUEBEC

45°26'00.000" N
71°41'00.000" W
241.40 m
7028124
71610
YSC

Download Data

Hourly Data (December 2004)
Hourly Data Report for December 14, 2004
TIME
LST
Temp Definition
°C
Dew Point Definition
°C
Rel Hum Definition
%
Precip. Amount Definition
mm

Wind Dir Definition
10's deg

Wind Spd Definition
km/h
Visibility Definition
km
Stn Press Definition
kPa
Hmdx Definition


Wind Chill Definition


Weather Definition


00:00 -6.6 -9.0 83   30 15 15.0 97.42   -13 Snow
01:00 -7.5 -10.1 82   30 13 3.9 97.50   -13 Snow
02:00 -7.7 -10.3 82   29 19 4.0 97.60   -15 Snow
03:00 -8.3 -11.3 79   28 13 15.0 97.71   -14 Snow
04:00 -9.1 -12.0 79   30 15 4.8 97.79   -16 Snow
05:00 -10.3 -12.9 81   28 22 5.6 97.89   -19 Snow
06:00 -10.7 -13.8 78   28 15 11.3 98.05   -18 Snow
07:00 -11.3 -14.6 77   28 19 15.0 98.18   -19 Snow
08:00 -11.8 -14.7 79   28 20 16.1 98.30   -20 Snow
09:00 -11.8 -15.1 76   28 20 19.3 98.42   -20 Snow
10:00 -11.6 -14.9 76   27 20 12.9 98.54   -20 Snow
11:00 -11.6 -14.9 76   29 22 4.8 98.54   -20 Snow
12:00 -11.8 -14.9 78   28 24 12.9 98.59   -21 Snow
13:00 -11.4 -14.6 77   29 17 9.7 98.63   -19 Snow
14:00 -11.0 -14.4 76   27 15 4.8 98.74   -18 Snow
15:00 -10.7 -14.2 75   28 11 19.3 98.80   -16 Snow
16:00 -10.9 -13.8 79   27 7 4.8 98.87   -15 Snow Showers
17:00 -10.7 -13.3 81   28 13 12.9 98.96   -17 Snow Showers
18:00 -11.3 -14.0 80   27 13 5.6 99.03   -18 Snow
19:00 -11.5 -14.0 82   18 6 9.7 99.12   -15  
20:00 -11.2 -13.8 81   19 4 4.8 99.16   -14 Snow
21:00 -11.7 -14.1 82   26 7 2.7 99.20   -16 Snow
22:00 -11.8 -14.3 82   27 7 8.0 99.24   -16 Snow
23:00 -12.3 -15.1 80   27 11 15.0 99.29   -18  

Notes on Data Quality.

Legend

  • E = Estimated
  • M = Missing
  • NA = Not Available*
  • [empty] = Indicates an unobserved value
Date modified: